Weather Roundup
Issued by NWS

Home | Current Version | Previous Version | Graphics & Text | Print | Product List | Glossary Off
Versions: 1 2 3 4 5 6 7 8 9 10 11 12 13 14 15 16 17 18 19 20 21 22 23 24 25 26 27 28 29 30 31 32 33 34 35 36 37 38 39 40 41 42 43 44 45 46 47 48 49 50

032
NZUS93 KARX 052359
HRRWXR

CURRENT HOURLY OBSERVATIONS ACROSS
MUCH OF THE UPPER MISSISSIPPI VALLEY
NATIONAL WEATHER SERVICE LA CROSSE WI
600 PM CST MON DEC 05 2016


...SOUTHEAST MINNESOTA...


CITY           SKY/WX    TMP DP  RH WIND       PRES   REMARKS
ROCHESTER      CLOUDY    34  31  88 S18       29.70F WCI  23
ROCHESTER/MAYO MOCLDY    34  32  93 SE14G23   29.70F WCI  25
WINONA         CLOUDY    36  32  87 SE13      29.77F WCI  27
AUSTIN         CLOUDY    34  30  86 S14G23    29.69R WCI  24
ALBERT LEA     PTCLDY    39  37  93 S18G30    29.65F WCI  30
DODGE CENTER   CLOUDY    34  30  86 SE23      29.67S WCI  22
PRESTON        CLOUDY    33  29  88 SE13G20   29.74S WCI  23
OWATONNA       CLOUDY    37  30  75 SE18G29   29.64F WCI  27
FARIBAULT      CLOUDY    37  32  81 SE13      29.65F WCI  29
$$

...ELSEWHERE IN MINNESOTA...


CITY           SKY/WX    TMP DP  RH WIND       PRES   REMARKS
MINNEAPOLIS    CLOUDY    38  31  76 S16G28    29.66S WCI  29
INTNL FALLS    CLOUDY    30  25  81 E9        29.72R WCI  22
DULUTH         LGT SNOW  33  32  96 E17G24    29.69F VSB 3/4 WCI  22
RED WING       CLOUDY    37  30  75 S5        29.72R WCI  34
REDWOOD FALLS  MOCLDY    42  34  73 S17       29.55F
MANKATO        NOT AVBL
WORTHINGTON    PTCLDY    40  35  83 SW23      29.58R WCI  30
FAIRMONT       CLOUDY    42  37  82 S18       29.63R
$$

...SOUTHWEST WISCONSIN...


CITY           SKY/WX    TMP DP  RH WIND       PRES   REMARKS
LA CROSSE      CLOUDY    38  31  76 SE12      29.81F WCI  30
PRAIRIE DU CHI CLOUDY    34  30  86 E8        29.86F WCI  27
BOSCOBEL       CLOUDY    35  31  85 CALM      29.89S
LONE ROCK      NOT AVBL
PLATTEVILLE    CLOUDY    33  33 100 SE8       29.88F WCI  26
FORT MC COY    CLOUDY    35  32  86 SE6       29.85F WCI  30
MAUSTON-NEW LI CLOUDY    34  32  92 SE7       29.88S WCI  28
VIROQUA        CLOUDY    32  32  99 SE12      29.83F WCI  23
WIS DELLS      CLOUDY    32  31  94 S9        29.90S WCI  24
$$

...ELSEWHERE IN WISCONSIN...


CITY           SKY/WX    TMP DP  RH WIND       PRES   REMARKS
MILWAUKEE      CLOUDY    34  31  88 S5        29.97F FOG     WCI  30
MADISON        CLOUDY    32  30  92 S10       29.93F WCI  24
GREEN BAY      CLOUDY    35  34  96 S7        29.96S WCI  29
EAU CLAIRE     NOT AVBL
BLACK RVR FLS  CLOUDY    35  33  92 SE5       29.83F WCI  31
MEDFORD        CLOUDY    32  31  94 SE8G17    29.82F FOG     WCI  25
WAUSAU         CLOUDY    33  31  92 SE7       29.87F WCI  27
WIS RAPIDS     MOCLDY    33  33 100 SE7       29.89F WCI  27
MARSHFIELD     CLOUDY    33  31  92 SE12      29.84F WCI  24
RICE LAKE      CLOUDY    34  33  95 SE15      29.76R WCI  24
$$

...NORTHEAST IOWA...


CITY           SKY/WX    TMP DP  RH WIND       PRES   REMARKS
WATERLOO       CLOUDY    34  31  88 SE17      29.76F WCI  23
DUBUQUE        LGT SNOW  32  31  96 SE17      29.87F FOG     WCI  21
DECORAH        CLOUDY    32  30  93 SE13G22   29.77F WCI  22
MASON CITY     CLOUDY    34  33  96 S21G29    29.71S WCI  22
CHARLES CITY   CLOUDY    34  34 100 SE20G28   29.73F WCI  22
OELWEIN        CLOUDY    32  32 100 SE21      29.79S WCI  20
$$

...ELSEWHERE IN IOWA...


CITY           SKY/WX    TMP DP  RH WIND       PRES   REMARKS
DES MOINES     MOCLDY    43  35  73 SE15      29.74S
IOWA CITY      CLOUDY    34  32  92 SE13G22   29.88F WCI  25
FORT DODGE     CLOUDY    45  34  65 S15G26    29.68R
MARSHALLTOWN   PTCLDY    36  35  96 SE22      29.75S WCI  25
CEDAR RAPIDS   CLOUDY    33  33 100 SE12      29.84R FOG     WCI  24
$$

...NORTHERN ILLINOIS...


CITY           SKY/WX    TMP DP  RH WIND       PRES   REMARKS
CHICAGO-OHARE  CLOUDY    32  30  92 S9        29.98F FOG     WCI  24
CHICAGO-MIDWAY CLOUDY    33  29  85 SE6       30.00S WCI  28
MOLINE         CLOUDY    35  31  85 SE8       29.93R FOG     WCI  29
ROCKFORD       CLOUDY    32  30  92 SE9       29.98F FOG     WCI  24
PEORIA         CLOUDY    35  33  92 SE7       29.95R WCI  29
$$

NOTE: "FAIR" INDICATES FEW OR NO CLOUDS BELOW 12,000 FEET WITH NO
SIGNIFICANT WEATHER AND/OR OBSTRUCTIONS TO VISIBILITY. WIND
SPEEDS ARE IN MILES-PER-HOUR.




USA.gov is the U.S. government's official web portal to all federal, state and local government web resources and services.